Location: Unspecified
(0.0000°N, 0.0000°E)
Time: 06:31:31
(UTC+00:00)

Vanguard 2 - Pass Details

Date: 25 September 2019
Orbit: 554 x 2937 km, 32.9° (Epoch: 14 October)

Event Time Altitude Azimuth Distance (km) Brightness Sun altitude
Rises 21:51:23 0° 237° (WSW) 5,885 12.4 -59.9°
Reaches altitude 10° 21:54:51 10° 238° (WSW) 5,115 11.9 -60.8°
Enters shadow 22:02:27 39° 242° (WSW) 3,658 10.9 -62.7°
Maximum altitude 22:11:09 81° 324° (NW) 2,942 - -64.9°
Drops below altitude 10° 22:28:45 10° 50° (NE) 5,451 - -69.3°
Sets 22:32:35 0° 52° (NE) 6,270 - -70.2°
